Weather History for KSRB - December, 2012

Change the Weather History Date:

Tuesday, December 25, 2012

  Actual Average (KCSV) Record (KCSV)
Temperature  
Mean Temperature 42 °F 37 °F  
Max Temperature 48 °F 45 °F 66 °F (1955)
Min Temperature 37 °F 28 °F -7 °F (1983)
Degree Days  
Heating Degree Days 22    
Month to date heating degree days  
Since 1 July heating degree days  
Cooling Degree Days 0    
Month to date cooling degree days  
Year to date cooling degree days  
Moisture  
Dew Point 40 °F    
Average Humidity 99    
Maximum Humidity 100    
Minimum Humidity 93    
Precipitation  
Precipitation 0.00 in 0.14 in 1.94 in (1973)
Month to date precipitation 4.08  
Year to date precipitation 54.22  
Sea Level Pressure  
Sea Level Pressure 29.92 in    
Wind  
Wind Speed 6 mph (NNE)    
Max Wind Speed 18 mph    
Max Gust Speed 25 mph    
Visibility 3 miles    
Events      
T = Trace of Precipitation, MM = Missing Value Source: NWS Daily Summary

Daily Weather History Graph

Daily Weather History Graph

Search for Another Location

Airport or City:

Trip Planner

Search our weather history database for the weather conditions in past years. The results will help you decide how hot, cold, wet, or windy it might be!

Date:

Astronomy

Dec. 25, 2012 Rise Set
Actual Time 6:51 AM CST 4:34 PM CST
Civil Twilight 6:22 AM CST 5:02 PM CST
Nautical Twilight 5:50 AM CST 5:34 PM CST
Astronomical Twilight 5:19 AM CST 6:06 PM CST
Moon 2:40 PM CST (12/25) 4:24 AM CST (12/25)
Length of Visible Light 10h 40m
Length of Day
9h 43m
Waxing Gibbous, 94% of the Moon is Illuminated
Dec 25
Waxing Gibbous
Dec 28
Full
Jan 4
Last Quarter
Jan 11
New
Jan 18
First Quarter

Hourly Weather History & Observations

Time (CST) Temp. Windchill Dew Point Humidity Pressure Visibility Wind Dir Wind Speed Gust Speed Precip Events Conditions
12:15 AM 44.6 °F 43.1 °F 44.6 °F 100% 29.98 in 4.0 mi North 3.5 mph - N/A   Overcast
12:35 AM 44.6 °F 42.2 °F 44.6 °F 100% 29.98 in 3.0 mi NNE 4.6 mph - N/A   Overcast
12:55 AM 44.6 °F 41.4 °F 44.6 °F 100% 29.97 in 4.0 mi North 5.8 mph - N/A   Overcast
1:15 AM 44.6 °F 41.4 °F 44.6 °F 100% 29.98 in 4.0 mi NNW 5.8 mph - N/A   Overcast
1:35 AM 44.6 °F 43.1 °F 44.6 °F 100% 29.98 in 4.0 mi North 3.5 mph - N/A   Overcast
1:55 AM 44.6 °F 42.2 °F 42.8 °F 93% 29.99 in 5.0 mi North 4.6 mph - N/A   Overcast
2:15 AM 42.8 °F 39.3 °F 42.8 °F 100% 29.99 in 6.0 mi North 5.8 mph - N/A   Overcast
2:35 AM 42.8 °F 40.1 °F 42.8 °F 100% 30.00 in 5.0 mi North 4.6 mph - N/A   Overcast
2:55 AM 42.8 °F 40.1 °F 42.8 °F 100% 30.00 in 4.0 mi North 4.6 mph - N/A   Overcast
3:15 AM 41.0 °F 38.0 °F 41.0 °F 100% 30.00 in 4.0 mi North 4.6 mph - N/A   Overcast
3:35 AM 42.8 °F 40.1 °F 41.0 °F 93% 30.00 in 2.5 mi Variable 4.6 mph - N/A   Overcast
3:55 AM 42.8 °F 41.1 °F 41.0 °F 93% 30.00 in 2.5 mi North 3.5 mph - N/A   Overcast
4:15 AM 41.0 °F 39.0 °F 41.0 °F 100% 30.00 in 2.0 mi North 3.5 mph - N/A   Overcast
4:35 AM 41.0 °F 38.0 °F 41.0 °F 100% 30.00 in 2.5 mi North 4.6 mph - N/A   Overcast
4:55 AM 41.0 °F 38.0 °F 39.2 °F 93% 30.01 in 2.0 mi NNW 4.6 mph - N/A   Overcast
5:15 AM 39.2 °F 37.0 °F 39.2 °F 100% 30.01 in 1.8 mi NNE 3.5 mph - N/A   Overcast
5:35 AM 39.2 °F 35.9 °F 39.2 °F 100% 30.01 in 2.5 mi NNE 4.6 mph - N/A   Overcast
5:55 AM 39.2 °F 34.2 °F 39.2 °F 100% 30.01 in 2.0 mi NNE 6.9 mph - N/A   Overcast
6:15 AM 39.2 °F 35.0 °F 39.2 °F 100% 30.00 in 1.2 mi NE 5.8 mph - N/A   Overcast
6:35 AM 39.2 °F 35.9 °F 39.2 °F 100% 30.01 in 1.0 mi North 4.6 mph - N/A   Overcast
6:55 AM 39.2 °F 35.9 °F 37.4 °F 93% 30.01 in 0.8 mi NE 4.6 mph - N/A   Overcast
7:15 AM 39.2 °F 37.0 °F 37.4 °F 93% 30.01 in 0.8 mi NE 3.5 mph - N/A   Overcast
7:35 AM 39.2 °F 35.9 °F 39.2 °F 100% 30.02 in 1.0 mi NNW 4.6 mph - N/A   Overcast
7:55 AM 39.2 °F 35.0 °F 39.2 °F 100% 30.02 in 0.8 mi North 5.8 mph - N/A   Overcast
8:15 AM 39.2 °F 35.9 °F 39.2 °F 100% 30.01 in 1.0 mi NNE 4.6 mph - N/A   Overcast
8:35 AM 39.2 °F 35.9 °F 39.2 °F 100% 30.01 in 1.2 mi North 4.6 mph - N/A   Overcast
8:55 AM 39.2 °F 35.0 °F 39.2 °F 100% 30.02 in 2.0 mi NNE 5.8 mph - N/A   Overcast
9:15 AM 39.2 °F 35.9 °F 39.2 °F 100% 30.04 in 2.0 mi NNE 4.6 mph - N/A   Overcast
9:35 AM 39.2 °F 35.0 °F 39.2 °F 100% 30.02 in 1.8 mi NNE 5.8 mph - N/A   Overcast
9:55 AM 39.2 °F 35.0 °F 39.2 °F 100% 30.04 in 1.8 mi North 5.8 mph - N/A   Overcast
10:15 AM 39.2 °F 35.0 °F 39.2 °F 100% 30.04 in 1.8 mi NNE 5.8 mph - N/A   Overcast
10:35 AM 39.2 °F 34.2 °F 39.2 °F 100% 30.04 in 1.5 mi NNE 6.9 mph - N/A   Overcast
10:55 AM 39.2 °F 35.0 °F 39.2 °F 100% 30.03 in 1.5 mi NNE 5.8 mph - N/A   Overcast
11:15 AM 39.2 °F 35.9 °F 39.2 °F 100% 30.02 in 1.5 mi NNE 4.6 mph - N/A   Overcast
11:35 AM 39.2 °F 35.9 °F 39.2 °F 100% 30.01 in 1.8 mi NNE 4.6 mph - N/A   Overcast
11:55 AM 39.2 °F 35.0 °F 39.2 °F 100% 30.01 in 2.0 mi North 5.8 mph - N/A   Overcast
12:15 PM 39.2 °F 35.0 °F 39.2 °F 100% 30.01 in 2.0 mi NNE 5.8 mph - N/A   Overcast
12:35 PM 39.2 °F 33.6 °F 39.2 °F 100% 30.00 in 2.0 mi NE 8.1 mph - N/A   Overcast
12:55 PM 39.2 °F 33.6 °F 39.2 °F 100% 29.99 in 2.0 mi NNE 8.1 mph - N/A   Overcast
1:15 PM 39.2 °F 33.0 °F 39.2 °F 100% 29.97 in 1.8 mi NNE 9.2 mph - N/A   Overcast
1:35 PM 39.2 °F 33.6 °F 39.2 °F 100% 29.95 in 1.5 mi NNE 8.1 mph - N/A   Overcast
1:55 PM 39.2 °F 34.2 °F 39.2 °F 100% 29.94 in 1.8 mi NE 6.9 mph - N/A   Overcast
2:15 PM 39.2 °F 33.0 °F 37.4 °F 93% 29.93 in 1.2 mi NNE 9.2 mph - N/A   Overcast
2:35 PM 39.2 °F 33.6 °F 37.4 °F 93% 29.93 in 1.2 mi NNE 8.1 mph - N/A   Overcast
2:55 PM 37.4 °F 32.1 °F 37.4 °F 100% 29.92 in 1.2 mi NE 6.9 mph - N/A   Overcast
3:15 PM 39.2 °F 34.2 °F 37.4 °F 93% 29.92 in 1.2 mi NNE 6.9 mph - N/A   Overcast
3:35 PM 39.2 °F 35.0 °F 39.2 °F 100% 29.91 in 1.5 mi NNE 5.8 mph - N/A   Overcast
3:55 PM 39.2 °F 35.9 °F 39.2 °F 100% 29.91 in 1.8 mi NNE 4.6 mph - N/A   Mostly Cloudy
4:15 PM 39.2 °F 35.9 °F 39.2 °F 100% 29.90 in 2.0 mi NE 4.6 mph - N/A   Partly Cloudy
4:55 PM 39.2 °F 34.2 °F 39.2 °F 100% 29.86 in 4.0 mi NNE 6.9 mph - N/A   Mostly Cloudy
5:15 PM 41.0 °F 37.1 °F 39.2 °F 93% 29.85 in 4.0 mi NE 5.8 mph - N/A   Mostly Cloudy
5:35 PM 41.0 °F 37.1 °F 39.2 °F 93% 29.84 in 4.0 mi NE 5.8 mph - N/A   Overcast
5:55 PM 41.0 °F 37.1 °F 41.0 °F 100% 29.83 in 5.0 mi NE 5.8 mph - N/A   Overcast
6:35 PM 41.0 °F 35.8 °F 41.0 °F 100% 29.82 in 7.0 mi NNE 8.1 mph - N/A   Mostly Cloudy
6:55 PM 41.0 °F 35.8 °F 41.0 °F 100% 29.84 in 7.0 mi NNE 8.1 mph - N/A   Mostly Cloudy
7:15 PM 41.0 °F 35.2 °F 39.2 °F 93% 29.84 in 4.0 mi NNE 9.2 mph - N/A   Overcast
7:35 PM 39.2 °F 33.0 °F 39.2 °F 100% 29.82 in 2.5 mi NE 9.2 mph - N/A   Mostly Cloudy
7:55 PM 39.2 °F 34.2 °F 39.2 °F 100% 29.81 in 2.0 mi NNE 6.9 mph - N/A   Overcast
8:15 PM 39.2 °F 34.2 °F 39.2 °F 100% 29.82 in 2.5 mi NNE 6.9 mph - N/A   Overcast
8:35 PM 39.2 °F 33.6 °F 39.2 °F 100% 29.82 in 2.5 mi NE 8.1 mph - N/A   Overcast
8:55 PM 39.2 °F 33.6 °F 39.2 °F 100% 29.82 in 2.0 mi NE 8.1 mph - N/A   Overcast
9:15 PM 39.2 °F 33.0 °F 39.2 °F 100% 29.78 in 3.0 mi NE 9.2 mph - N/A   Mostly Cloudy
9:35 PM 39.2 °F 35.0 °F 39.2 °F 100% 29.76 in 4.0 mi NE 5.8 mph - N/A   Scattered Clouds
10:15 PM 42.8 °F 34.5 °F 41.0 °F 93% 29.63 in 5.0 mi ENE 18.4 mph - N/A   Mostly Cloudy
10:35 PM 44.6 °F 38.8 °F 44.6 °F 100% 29.62 in 9.0 mi ENE 11.5 mph 19.6 mph N/A   Mostly Cloudy
10:55 PM 46.4 °F 39.5 °F 46.4 °F 100% 29.62 in 10.0 mi ESE 17.3 mph 25.3 mph N/A   Partly Cloudy
11:15 PM 46.4 °F 41.9 °F 46.4 °F 100% 29.63 in 10.0 mi ESE 9.2 mph - N/A   Partly Cloudy
11:35 PM 48.2 °F - 46.4 °F 93% 29.61 in 5.0 mi ESE 9.2 mph - N/A   Mostly Cloudy
11:55 PM 48.2 °F - 48.2 °F 100% 29.57 in 5.0 mi ESE 13.8 mph - N/A   Mostly Cloudy